Orbital elements:
2015 AM45 Earth MOID = 0.0000 AU
Epoch 2014 Dec. 9.0 TT = JDT 2457000.5 MPC
M 18.96621 (2000.0) P Q
n 0.50991119 Peri. 107.54889 +0.91742646 -0.38595360
a 1.5516950 Node 275.24239 +0.31816782 +0.85762432
e 0.5172294 Incl. 5.57782 +0.23895171 +0.33988283
P 1.93 H 22.2 G 0.15 U 7